Thibaut Dromigny

Thibaut Dromigny

Statistiques 2026

  • Courses courues : 170
  • Nb de victoires : 11
  • Nb de places : 45
  • Écart gagnant : 3
  • Réussite à la gagne : 6%
  • Réussite à la place : 26%
Musique : Da 5a Aa 1a 2a 4a 7m 6a 6a 5a 0a 0a 7m 1m 2m 2a 2m 2a
DateRangCatégorieAlloc.Dist.HippodromeChevalRed. KmSpé.
21/01/25 5 Trot 19 500€ 3 025m Nantes Henzo de Carsi 1'14"9 Attelé
26/01/25 D Trot 15 000€ 2 700m Lyon La Soie Lino de la Vallee Attelé
29/01/25 0 Trot 26 000€ 3 125m Angers Godzilla Vici Attelé
30/01/25 3 Trot 24 000€ 2 050m Lyon La Soie Impress Me 1'17"0 Attelé
30/01/25 3 Trot 20 000€ 2 050m Lyon La Soie Looping Ben Max 1'16"6 Attelé
30/01/25 7 Trot 20 000€ 2 050m Lyon La Soie La Nuit Je Mens 1'16"7 Attelé
02/02/25 D Trot 40 000€ 2 700m Vincennes Lucia du Chatelet Attelé
02/02/25 8 Trot 59 000€ 2 700m Vincennes Ferlaine 1'13"7 Attelé lire

Après avoir évolué sur une cinquième ligne, a conclu correctement.

03/02/25 D Trot 20 000€ 2 725m Graignes Jaguar de Belfond Attelé
04/02/25 4 Trot 13 500€ 2 050m Lyon La Soie Letty d'Argenviere 1'18"5 Attelé
04/02/25 D Trot 15 000€ 2 700m Lyon La Soie Kanelle Planchette Attelé
04/02/25 2 Trot 25 000€ 2 700m Lyon La Soie Isia du Chene 1'16"6 Attelé
05/02/25 6 Trot 21 000€ 2 850m Laval Kristal des Moyeux 1'16"6 Attelé
07/02/25 D Trot 24 000€ 2 900m Argentan Henzo de Carsi Attelé
11/02/25 7 Trot 52 000€ 2 100m Vincennes Hit de Jobi 1'12"6 Attelé lire

Longtemps au sein du peloton, n'a pas trop mal conclu.

12/02/25 0 Trot 23 000€ 2 700m Lyon La Soie Lucia du Chatelet Attelé
12/02/25 D Trot 17 500€ 2 700m Lyon La Soie Korleon Attelé
15/02/25 D Mixte 14 000€ 2 750m Nimes Lolipop Marandaise Attelé
15/02/25 2 Mixte 24 000€ 2 750m Nimes Hamilton d'Alb Attelé
22/02/25 1 Trot 20 000€ 2 400m Amiens Isis Castelets 1'15"6 Attelé
23/02/25 D Trot 20 000€ 2 725m Lyon La Soie La Nuit Je Mens Attelé
23/02/25 3 Trot 30 000€ 2 700m Lyon La Soie Hipparis 1'14"0 Attelé
23/02/25 3 Trot 26 000€ 2 725m Lyon La Soie Jumbo d'Auvillier 1'14"9 Attelé
23/02/25 6 Trot 26 000€ 2 725m Lyon La Soie Isia du Chene 1'16"5 Attelé
23/02/25 6 Trot 14 500€ 2 700m Lyon La Soie Miss Up Star 1'21"9 Attelé
24/02/25 4 Trot 21 000€ 2 700m Le Croise Laroche Jibilie du Damier 1'15"2 Attelé
24/02/25 D Trot 21 000€ 2 700m Le Croise Laroche Kristal des Moyeux Attelé
02/03/25 D Trot 14 000€ 2 675m Chatillon Le Conquistador Attelé
02/03/25 4 Trot 14 000€ 2 675m Chatillon Lalmeria Filo 1'19"3 Attelé
02/03/25 5 Trot 14 000€ 2 675m Chatillon Love d'Urzy 1'18"7 Attelé
02/03/25 1 Trot 16 500€ 2 700m Chatillon Jaeger Man 1'17"2 Attelé
02/03/25 1 Trot 24 000€ 2 675m Chatillon Illustre Sax 1'17"6 Attelé
01/03/25 0 Trot 59 000€ 2 100m Vincennes Hit de Jobi Attelé lire

N'a joué aucun rôle utile.

05/03/25 0 Trot 90 000€ 2 925m Amiens Hannah Attelé lire

N'a joué aucun rôle utile.

07/03/25 8 Trot 59 000€ 2 150m Enghien Soisy Ferlaine 1'13"7 Attelé lire

Longtemps à l'arrière-garde, n'a pas trop mal conclu.

08/03/25 2 Trot 30 000€ 2 700m Le Croise Laroche Idreamis 1'14"0 Attelé
08/03/25 D Trot 35 000€ 2 825m Le Croise Laroche Hello Paname Attelé lire

A rapidement été sanctionné.

08/03/25 D Trot 21 000€ 2 700m Le Croise Laroche Kiss Symphony Attelé
09/03/25 D Trot 14 000€ 2 200m Strasbourg Maldini Ellis Attelé
09/03/25 3 Trot 13 000€ 2 800m Strasbourg Le Vent du Houlet 1'17"9 Attelé
09/03/25 8 Trot 15 000€ 2 800m Strasbourg Kanza de Navary 1'19"4 Attelé
09/03/25 D Trot 21 000€ 2 800m Strasbourg Isis Castelets Attelé
09/03/25 6 Trot 13 000€ 2 800m Strasbourg La Baronne 1'20"7 Attelé
10/03/25 4 Trot 20 000€ 2 050m Lyon La Soie Looping Ben Max 1'14"3 Attelé
15/03/25 1 Trot 21 000€ 2 500m Reims Kaprice de Chanjac 1'15"2 Attelé
15/03/25 3 Trot 21 000€ 2 550m Reims La Nuit Je Mens 1'15"6 Attelé
16/03/25 1 Trot 12 000€ 2 500m Bihorel Les Rouens Lutin du Fosse Attelé
16/03/25 2 Trot 10 000€ 2 500m Bihorel Les Rouens Indian Horse Attelé
23/03/25 3 Trot 14 000€ 2 750m La Capelle Le Vent du Houlet 1'17"0 Attelé
23/03/25 5 Trot 16 000€ 2 750m La Capelle Kanza de Navary 1'16"3 Attelé